Regional Weather Roundup
Issued by NWS

Home | Current Version | Previous Version | Text Only | Print | Product List | Glossary Off
Versions: 1 2 3 4 5 6 7 8 9 10 11 12 13 14 15 16 17 18 19 20 21 22 23 24 25 26 27

000
ASUS45 KPSR 030010
RWRAZ

ARIZONA HOURLY REGIONAL WEATHER ROUNDUP
NATIONAL WEATHER SERVICE PHOENIX AZ
500 PM MST FRI DEC 02 2016

NOTE: FAIR INDICATES FEW OR NO CLOUDS BELOW 12,000 FEET WITH NO
SIGNIFICANT WEATHER AND/OR OBSTRUCTIONS TO VISIBILITY.

AZZ001>003-036-030100-
NORTHWEST ARIZONA

CITY           SKY/WX    TMP DP  RH WIND       PRES   REMARKS
BULLHEAD CITY  CLEAR     59  18  20 N26G41    30.01R
KINGMAN        CLEAR     47  13  25 N22G28    30.02R
6HR MIN TEMP:  46; 6HR MAX TEMP:  50;

$$

AZZ004>008-015-016-018-030100-
NORTH CENTRAL ARIZONA

CITY           SKY/WX    TMP DP  RH WIND       PRES   REMARKS
GRAND CANYON   CLOUDY    34  17  50 NE9       30.02R WCI  27
6HR MIN TEMP:  32; 6HR MAX TEMP:  34;

PRESCOTT       MOCLDY    39  27  62 N9        29.97R WCI  33
6HR MIN TEMP:  39; 6HR MAX TEMP:  44;

FLAGSTAFF      CLOUDY    28  20  71 E6        29.97R WCI  22
6HR MIN TEMP:  28; 6HR MAX TEMP:  31; 6HR PCP: TRACE;

PAYSON         PTCLDY    43  21  42 W6        29.96S THUNDER
PAGE           CLEAR     43  13  29 NE8       30.04R
6HR MIN TEMP:  41; 6HR MAX TEMP:  47;

$$

AZZ009>014-017-030100-
NORTHEAST ARIZONA

CITY           SKY/WX    TMP DP  RH WIND       PRES   REMARKS
WINSLOW        CLEAR     42  20  41 NW8       29.98R
6HR MIN TEMP:  38; 6HR MAX TEMP:  45;

SAINT JOHNS    PTCLDY    40  16  37 NW7       29.93R
6HR MIN TEMP:  39; 6HR MAX TEMP:  46;

WINDOW ROCK    PTCLDY    37  17  44 VRB6      29.96R WCI  32
6HR MIN TEMP:  37; 6HR MAX TEMP:  44;

SHOW LOW       MOCLDY    32  16  51 NW6       29.96R WCI  26
$$

AZZ023-030100-
GREATER PHOENIX AREA

CITY           SKY/WX    TMP DP  RH WIND       PRES   REMARKS
PHOENIX        MOCLDY    60  25  26 W8        29.90R
6HR MIN TEMP:  52; 6HR MAX TEMP:  61;

BUCKEYE        CLEAR     57  28  33 SE3       29.93S
GLENDALE       MOCLDY    61  28  29 NW5       29.92F
LUKE AFB       PTCLDY    60  28  28 W3        29.90S
6HR MIN TEMP:  56; 6HR MAX TEMP:  61; 6HR PCP: TRACE;

DEER VALLEY    MOCLDY    58  24  27 NW6       29.90S
6HR MIN TEMP:  54; 6HR MAX TEMP:  59;

SCOTTSDALE     CLOUDY    58  27  30 W5        29.92S
6HR MIN TEMP:  55; 6HR MAX TEMP:  59;

MESA-FALCON    MOCLDY   N/A N/A N/A W6        29.89R
MESA-GATEWAY   MOCLDY    57  21  24 NW7       29.91
CHANDLER       MOCLDY    61  25  25 NW6       29.91S
$$

AZZ027-028-030100-
SOUTHWEST MARICOPA COUNTY AND PINAL COUNTY

CITY           SKY/WX    TMP DP  RH WIND       PRES   REMARKS
CASA GRANDE    NOT AVBL
GILA BEND      PTCLDY    57  23  26 N3        29.90S
$$

AZZ503-504-507>509-030100-
SOUTHEAST ARIZONA

CITY           SKY/WX    TMP DP  RH WIND       PRES   REMARKS
TUCSON         MOCLDY    54  19  25 NW13G23   29.90R
6HR MIN TEMP:  54; 6HR MAX TEMP:  62;

DAVIS-MONTHAN  CLOUDY    52  19  26 NW16      29.88R
6HR MIN TEMP:  52; 6HR MAX TEMP:  61;

NOGALES        CLOUDY    52  30  43 W3        29.85S
6HR MIN TEMP:  52; 6HR MAX TEMP:  59;

SIERRA VISTA   CLOUDY    50  27  40 S13       29.88R
6HR MIN TEMP:  50; 6HR MAX TEMP:  56;

DOUGLAS        CLOUDY    54  31  41 W6        29.86S
6HR MIN TEMP:  54; 6HR MAX TEMP:  58;

SAFFORD        CLEAR     57  14  18 E3        29.84S
6HR MIN TEMP:  54; 6HR MAX TEMP:  62;

$$

AZZ020-021-025-026-031-030100-
SOUTHWEST ARIZONA

CITY           SKY/WX    TMP DP  RH WIND       PRES   REMARKS
YUMA           CLEAR     65  21  18 N17G25    29.94R
6HR MIN TEMP:  62; 6HR MAX TEMP:  66;

$$

CAZ031-033-041-043-047-048-061-030100-
SOUTHERN CALIFORNIA

CITY           SKY/WX    TMP DP  RH WIND       PRES   REMARKS
DOWNTOWN L.A.  CLEAR     62  10  13 N9G25     30.01R
6HR MIN TEMP:  62; 6HR MAX TEMP:  65;

L.A. AIRPORT   CLEAR     63   9  12 N18G29    30.01R
6HR MIN TEMP:  63; 6HR MAX TEMP:  67;

SAN DIEGO      PTCLDY    66  35  31 W8        29.95R
6HR MIN TEMP:  62; 6HR MAX TEMP:  68;

BURBANK        CLEAR     60   6  11 NE15G24   30.02S
6HR MIN TEMP:  58; 6HR MAX TEMP:  61;

ONTARIO        CLEAR     58   7  13 NE20G37   30.00R
6HR MIN TEMP:  57; 6HR MAX TEMP:  61;

RIVERSIDE      CLEAR     59  12  15 NE17G31   30.03R
6HR MIN TEMP:  57; 6HR MAX TEMP:  62;

PALM SPRINGS   CLEAR     61  11  14 N23G32    30.06R
6HR MIN TEMP:  61; 6HR MAX TEMP:  65;

EL CENTRO NAS  PTCLDY    63  21  20 N14       29.98S
6HR MIN TEMP:  63; 6HR MAX TEMP:  67;

IMPERIAL       CLEAR     64  22  20 N15       29.96R
6HR MIN TEMP:  63; 6HR MAX TEMP:  68; 6HR PCP: TRACE;

BLYTHE         PTCLDY    63  19  18 N23G30    29.95S
6HR MIN TEMP:  60; 6HR MAX TEMP:  66;

NEEDLES        CLEAR     60  19  20 N30G38    30.00S
6HR MIN TEMP:  59; 6HR MAX TEMP:  63;

$$

NVZ020-UTZ003-030100-
SOUTHERN NEVADA-UTAH

CITY           SKY/WX    TMP DP  RH WIND       PRES   REMARKS
LAS VEGAS      PTCLDY    53  12  19 N17G23    30.09S
6HR MIN TEMP:  50; 6HR MAX TEMP:  55;

SALT LAKE CITY PTCLDY    34  22  61 NW8       30.25R WCI  27
6HR MIN TEMP:  33; 6HR MAX TEMP:  37;

$$

NMZ009-TXZ055-030100-
NEW MEXICO-WEST TEXAS

CITY           SKY/WX    TMP DP  RH WIND       PRES   REMARKS
ALBUQUERQUE    CLOUDY    42  18  37 E20G30    29.98R
6HR MIN TEMP:  42; 6HR MAX TEMP:  49;

EL PASO        CLOUDY    60  25  26 E8        29.87R
6HR MIN TEMP:  55; 6HR MAX TEMP:  63;

$$


........................KEY........................
SKY/WX - SKY CONDITION/WEATHER
TMP    - TEMPERATURE IN FAHRENHEIT
DP     - DEW POINT IN FAHRENHEIT
RH     - RELATIVE HUMIDITY IN PERCENT
WIND   - DIRECTION AND SPEED IN MILES PER HOUR (MPH)
VRB    - VARIABLE WIND DIRECTION
PRES   - MEAN SEA LEVEL PRESSURE IN INCHES OF MERCURY
         F - FALLING PRESSURE   R - RISING PRESSURE
         S - STEADY PRESSURE
VSB    - VISIBILITY IN MILES
HX     - HEAT INDEX IN FAHRENHEIT
WCI    - WIND CHILL INDEX IN FAHRENHEIT
TC     - TEMPERATURE IN CELSIUS WHICH IS ALSO KNOWN AS
         TEMPERATURE IN CENTIGRADE
AFB    - AIR FORCE BASE
         LUKE AFB IS LUKE AIR FORCE BASE
         DAVIS-MONTHAN IS DAVIS-MONTHAN AIR FORCE BASE
NAS    - NAVAL AIR STATION
         EL CENTRO NAS IS EL CENTRO NAVAL AIR STATION
N/A    - NOT AVAILABLE





USA.gov is the U.S. government's official web portal to all federal, state and local government web resources and services.